Find Kosmos-220

NORAD ID: 3229 Int'l Des: 1968-040 Owner: OKB10 Country: SU operational
LEOCIRCULAR

实时位置

正在加载3D地球...

关于 Kosmos-220

正在加载描述...

即将过境

Passes for default location (London). Set your location on the main map for personalized predictions.

高度历史

Loading altitude history...

两行轨道根数

1 03229U 68040A 26106.26124561 .00000415 00000-0 58120-4 0 9996
2 03229 74.0245 303.3094 0034903 223.5083 136.3340 14.80762606 81227
Epoch: Apr 16, 2026 • Age: 9 hours

当前状态

高度 613.6 km
速度 7.56 km/s
星下点 -28.93°S, 56.98°E
类型 other

Most Searched